Temp
14 14 14 13 13 13 13 13 13 13 13 13 13 13 13 13 13 13 13 13 13 13 13 13 13 13 13 13 13 13 13 13 13 13 13 13 13 13 13 13 13 12 12 12 12 12 13 13 13 14 15 15 15 15 16 16 15 16 17 17 17 17 17 17 17 17 17 17 17
14 14 13 13 13 13 13 13 13 13 13 13 13 13 13 13 13 13 13 13 13 13 13 13 13 13 13 13 13 13 13 13 13 13 13 13 13 13 12 12 12 12 12 12 12 12 13 13 14 15 15 15 15 15 15 15 15 16 17 17 17 17 17 17 17 17 17 17 17
13 13 13 13 13 13 13 13 13 13 13 13 13 13 13 13 13 13 13 13 13 13 13 13 13 13 13 13 13 13 13 13 13 13 13 12 12 12 12 12 11 11 12 12 12 13 13 14 14 15 15 14 14 14 14 14 15 17 17 18 18 17 17 17 17 18 17 17 17
13 13 13 13 13 13 13 13 13 13 13 13 13 13 13 13 13 13 13 13 13 13 12 13 13 13 12 12 12 12 12 12 12 12 12 12 12 11 11 11 11 11 11 12 13 13 14 14 14 14 14 13 13 13 14 15 16 17 18 18 18 18 17 17 18 18 18 18 17
13 13 13 13 13 13 13 13 13 13 13 13 13 13 13 13 13 13 13 13 12 12 12 12 12 12 12 12 12 12 12 12 12 12 12 11 11 11 11 11 11 11 12 13 13 14 14 14 13 13 13 12 12 13 15 16 17 18 18 18 18 18 18 18 18 18 18 18 18
13 13 13 13 13 13 13 13 13 13 13 13 13 12 12 12 12 12 12 12 12 12 12 12 12 12 12 12 12 12 12 12 12 12 12 11 11 11 11 11 11 12 12 13 13 14 14 13 13 12 12 12 12 14 15 17 18 18 18 17 17 17 18 18 18 18 18 18 18
13 13 13 13 13 13 13 13 13 12 12 12 12 12 12 12 12 12 12 12 12 12 12 12 12 12 12 12 12 12 12 12 12 12 12 11 11 11 11 11 12 12 12 13 13 13 13 12 12 11 11 12 13 14 16 17 18 18 17 17 17 17 17 17 18 18 17 17 17
13 13 13 13 13 13 13 12 12 12 12 12 12 12 12 12 12 12 12 12 12 12 12 12 12 12 12 12 12 11 11 11 12 12 12 12 11 11 12 12 12 12 12 12 12 12 12 11 11 12 12 13 14 15 16 17 18 18 17 17 17 17 17 17 17 17 17 17 17
12 12 12 12 12 12 12 12 12 12 12 12 12 12 12 12 12 12 12 12 12 12 12 12 12 12 12 12 11 11 11 11 11 12 12 12 12 12 12 12 12 12 12 11 11 11 11 11 12 13 14 15 15 16 17 17 18 18 17 17 17 17 17 17 17 17 17 17 17
12 12 12 12 12 12 12 12 12 12 12 12 12 12 11 11 11 12 12 12 12 12 12 12 12 12 12 11 11 11 11 11 11 11 11 12 12 12 11 11 11 11 11 11 11 12 12 13 14 15 15 15 16 17 17 17 17 17 17 17 17 17 17 17 16 17 17 17 17
12 12 12 12 12 12 12 12 12 12 12 12 11 11 11 11 11 11 11 11 12 12 12 12 12 12 11 11 11 11 11 11 11 11 11 12 12 11 11 11 11 11 11 12 12 13 14 15 15 15 15 16 16 17 17 17 17 17 17 17 17 16 16 17 17 17 17 17 17
12 12 12 12 12 12 12 12 12 12 11 11 11 11 11 11 11 11 11 11 11 11 12 12 12 12 11 11 11 11 11 11 11 11 11 11 11 11 11 12 12 12 13 13 14 14 15 15 15 16 16 16 17 17 17 17 17 17 17 17 17 17 17 17 17 17 17 17 17
12 12 12 12 12 12 12 12 11 11 11 11 11 11 11 11 11 11 11 11 11 11 11 11 11 11 11 11 11 11 11 11 11 11 11 11 11 11 12 13 13 14 14 14 15 15 15 16 16 16 16 17 17 17 17 17 17 17 17 17 17 17 17 17 17 17 17 16 16
12 12 12 12 11 11 11 11 11 11 11 11 11 11 11 11 11 11 11 11 11 11 11 11 11 11 11 10 10 11 11 11 11 11 11 12 12 12 12 14 14 15 15 15 15 15 16 16 16 17 17 17 17 17 17 17 17 17 17 17 17 17 17 17 17 16 16 16 16
12 12 12 11 11 11 11 11 11 11 11 11 11 11 11 11 11 11 11 11 11 11 11 11 11 11 10 10 10 11 11 11 11 11 12 12 11 12 13 14 15 15 15 15 15 16 16 17 17 17 17 17 17 17 17 17 17 17 17 17 17 17 17 16 16 16 16 16 16
12 12 12 11 11 11 11 11 11 11 11 11 11 11 11 11 11 11 11 11 11 11 11 11 10 10 10 10 11 11 11 11 11 11 11 11 11 13 14 15 15 15 15 16 16 17 17 17 17 17 16 16 16 16 17 17 17 17 17 17 17 16 16 16 16 16 16 16 16
12 12 12 11 11 11 11 11 11 11 11 11 11 11 11 11 11 11 11 11 11 11 11 10 10 10 10 10 11 11 11 10 10 11 11 11 12 14 14 15 15 15 16 17 17 17 17 16 16 16 16 16 16 16 17 17 16 16 16 16 16 16 16 16 16 16 16 16 16
12 12 11 11 11 11 11 11 11 11 11 11 11 11 11 11 11 11 11 11 11 11 11 10 10 10 10 10 10 10 10 10 10 11 11 12 14 14 15 15 15 16 17 17 17 16 16 16 16 16 16 16 16 17 17 16 15 15 15 15 15 15 15 16 16 16 16 16 16
12 12 11 11 11 11 11 11 11 11 11 11 11 11 11 11 11 11 11 11 11 11 11 11 10 10 10 10 10 10 10 10 11 11 13 14 15 15 15 16 16 16 16 16 16 16 16 16 16 16 16 17 17 16 16 15 15 15 15 15 15 15 16 16 16 16 16 16 16
12 11 11 11 11 11 11 11 11 11 11 11 11 11 11 11 11 11 11 11 11 11 11 11 11 10 10 10 10 10 10 11 11 13 14 15 15 15 16 16 16 16 15 15 16 16 16 16 17 17 17 17 17 16 15 15 15 15 15 15 16 16 16 16 16 16 15 15 15
12 11 11 11 11 11 11 11 11 11 11 11 11 11 11 11 11 11 11 11 11 11 11 11 11 10 10 11 11 11 11 11 12 13 14 15 15 16 16 16 15 15 16 16 16 16 17 17 17 17 17 17 16 15 15 15 15 15 15 16 16 16 16 15 15 15 15 15 14
12 11 11 11 11 11 11 11 11 11 11 11 11 11 11 11 11 11 11 11 11 11 11 11 11 11 11 11 12 11 11 12 13 14 15 15 15 16 16 15 15 16 16 16 17 17 17 17 17 17 17 16 15 15 15 15 15 15 15 15 15 15 15 15 15 14 14 13 13
12 12 11 11 11 11 11 11 11 11 11 11 11 11 11 11 11 11 11 11 11 11 11 11 11 11 11 12 13 12 12 13 14 14 15 15 16 16 16 16 16 16 16 17 17 17 17 17 17 16 16 16 15 15 15 16 15 15 15 15 15 15 14 14 14 13 12 12 12
12 12 11 11 11 11 11 11 11 11 11 11 11 11 11 11 11 11 11 11 11 11 11 11 11 11 12 13 13 13 13 14 14 15 15 15 16 16 16 16 16 16 17 17 17 17 17 17 16 16 16 16 16 16 16 16 15 15 15 15 14 14 13 13 12 12 11 11 11
12 12 11 11 11 11 11 11 11 11 11 11 11 11 11 11 11 11 11 11 11 11 11 11 11 12 13 13 14 14 14 14 14 15 15 15 16 16 16 16 16 16 17 17 17 17 17 17 17 16 16 16 15 15 15 15 15 14 14 14 14 13 12 12 11 11 10 10 9
12 12 12 12 11 11 11 11 11 11 11 11 12 11 11 11 11 11 11 11 11 11 12 12 12 13 13 14 14 14 14 14 15 15 15 15 16 16 16 16 16 16 17 17 17 17 17 17 16 16 15 15 15 15 15 14 14 14 13 13 13 12 11 10 9 9 8 8 8
12 12 12 12 11 11 11 11 11 11 11 12 12 11 11 11 11 12 12 12 12 13 13 13 13 13 14 14 14 14 15 15 15 15 15 15 16 16 16 16 16 16 16 16 16 16 16 16 15 15 15 15 15 15 14 13 13 13 13 12 11 11 10 9 7 7 6 6 6
12 12 12 12 11 11 11 11 11 11 11 12 12 12 12 12 13 13 13 13 14 14 14 14 14 14 14 14 14 15 15 15 15 15 16 16 16 16 16 16 16 16 16 16 16 16 16 16 15 16 15 15 14 14 13 13 12 11 11 10 9 8 7 6 6 5 5 5 5
12 12 12 11 11 11 11 11 11 11 12 12 12 12 12 13 14 14 14 14 14 14 14 14 14 14 14 14 15 15 15 15 16 16 16 16 16 16 16 16 16 15 15 15 16 16 16 16 16 15 15 15 14 13 12 11 10 10 9 8 7 6 5 4 4 4 4 3 3
12 11 11 11 11 11 11 11 11 12 12 12 12 12 12 13 14 14 15 15 15 15 15 15 15 14 14 15 15 15 15 16 16 16 16 16 16 16 15 14 14 14 14 15 15 15 15 15 15 15 15 14 14 12 11 10 9 8 7 5 5 4 3 3 3 2 2 2 2
11 11 11 11 11 11 11 11 11 12 12 12 12 12 13 14 15 15 15 15 15 15 15 15 15 15 15 15 15 15 16 16 16 16 16 16 16 14 13 13 12 12 13 14 14 15 15 14 14 14 14 14 13 11 9 8 7 5 4 3 3 2 2 2 1 1 1 2 1
12 11 11 11 11 11 11 11 11 11 12 12 12 13 14 14 15 15 15 15 16 16 16 16 16 16 16 16 16 16 16 16 16 16 16 15 14 13 12 11 10 10 11 12 13 13 13 13 13 13 13 13 11 9 8 6 5 3 2 2 1 1 1 1 0 0 0 0 -0
12 12 12 11 11 11 11 11 11 12 12 12 13 13 14 15 15 16 16 16 16 16 16 15 15 15 15 15 14 14 14 14 14 14 14 13 13 12 10 9 8 7 8 9 11 12 12 12 12 12 11 11 9 7 5 4 3 2 1 0 -0 -0 -0 -0 -1 -1 -1 -1 -1
12 12 12 12 12 12 12 12 12 12 12 13 13 14 14 15 15 15 15 15 15 15 14 14 13 13 13 13 13 12 11 11 11 12 12 12 11 10 8 7 5 5 6 7 9 10 10 10 10 10 9 9 7 5 3 2 1 0 -0 -1 -1 -2 -2 -2 -2 -2 -2 -2 -2
13 13 13 13 13 13 13 13 13 13 13 14 14 14 15 15 15 15 15 14 14 14 13 12 12 12 11 11 11 10 9 9 9 9 9 9 8 7 6 4 3 4 4 6 7 7 8 8 8 8 8 7 5 3 2 1 -0 -1 -2 -2 -3 -3 -3 -3 -3 -3 -3 -2 -2
13 13 13 13 13 13 13 13 14 14 14 14 14 15 15 15 14 14 14 13 13 12 12 11 11 10 9 7 7 7 7 6 6 6 6 6 6 5 4 3 2 2 3 4 5 5 6 6 6 6 6 5 3 1 0 -1 -2 -2 -3 -3 -3 -3 -3 -3 -3 -3 -3 -3 -3
14 14 14 14 14 14 14 14 14 14 15 15 15 15 15 14 13 13 13 12 12 11 10 9 8 7 6 5 5 5 5 5 5 4 4 4 4 4 2 1 1 1 2 2 3 4 4 4 4 5 4 3 1 0 -1 -2 -3 -3 -3 -4 -4 -4 -4 -4 -4 -4 -4 -3 -3
15 14 14 14 14 14 15 15 15 15 15 15 15 15 14 13 12 12 12 11 11 9 8 7 6 5 4 4 3 4 4 4 4 3 2 2 3 2 1 0 0 0 1 1 2 2 2 3 3 3 3 2 0 -1 -2 -3 -3 -4 -4 -5 -5 -5 -5 -5 -5 -5 -5 -5 -4
15 15 15 15 15 15 15 15 15 15 15 15 14 13 12 12 11 10 10 10 10 8 7 6 5 4 4 3 2 2 2 2 2 2 1 1 0 0 0 -0 -1 -1 -0 0 1 1 1 2 2 2 2 1 -0 -1 -2 -3 -4 -4 -5 -5 -6 -6 -6 -6 -6 -6 -6 -6 -6
15 15 15 15 15 15 15 15 15 15 15 14 12 11 10 10 9 9 9 9 8 7 6 5 4 2 1 1 1 1 0 0 0 0 -0 -0 -1 -1 -1 -1 -1 -1 -1 -0 -0 0 0 1 1 1 1 0 -0 -1 -2 -3 -4 -5 -5 -6 -6 -6 -7 -7 -7 -7 -7 -7 -7
16 16 16 15 15 15 15 15 15 14 13 12 10 9 8 8 7 7 7 7 7 6 4 3 1 0 0 1 0 -0 -1 -1 -1 -1 -1 -1 -1 -1 -1 -1 -2 -2 -2 -1 -1 -1 -1 -1 -1 -0 -0 -1 -1 -2 -3 -3 -4 -6 -6 -6 -7 -7 -7 -7 -7 -7 -7 -7 -8
Height
690 692 693 695 697 698 699 701 702 703 704 705 707 708 709 710 711 712 714 717 720 722 723 725 727 729 730 732 734 736 737 738 741 743 746 748 750 753 755 758 760 762 764 766 768 770 772 775 780 783 785 787 788 789 790 791 791 790 790 791 792 793 795 797 798 799 801 803 803
689 690 691 693 695 697 698 700 701 703 704 705 707 708 708 709 709 711 714 718 720 722 723 725 727 728 730 732 734 736 737 738 740 743 745 748 750 753 755 757 759 761 763 765 767 769 773 777 781 783 784 786 788 790 791 791 789 788 788 790 791 793 794 796 797 799 800 802 803
688 689 690 692 693 695 696 698 700 702 703 705 707 708 708 709 711 713 716 718 720 722 723 725 727 728 729 732 734 736 737 738 740 742 744 747 750 753 754 756 758 760 762 764 766 770 774 778 780 782 783 785 788 791 791 790 787 786 787 789 791 792 794 795 797 798 800 801 802
688 688 690 691 691 692 694 697 699 701 703 705 707 708 709 710 712 714 716 718 720 722 723 725 726 728 729 731 733 735 737 738 739 742 744 748 750 752 754 756 758 759 761 764 768 772 775 778 779 780 783 786 789 791 790 788 786 785 786 788 790 792 793 795 796 798 799 800 801
688 688 690 690 690 691 693 697 699 701 703 705 707 708 709 711 713 715 717 719 720 722 723 724 726 727 729 731 733 735 736 738 739 742 745 747 749 752 754 756 758 759 761 764 768 771 773 776 778 780 783 787 789 790 788 785 783 784 786 788 790 791 793 794 796 797 798 799 801
687 688 690 690 691 692 694 697 699 701 703 704 706 708 709 711 713 714 716 718 720 721 723 724 726 727 729 731 733 734 736 738 740 742 745 747 749 752 754 757 758 759 762 765 768 770 773 775 778 782 785 788 790 789 786 782 782 784 786 788 789 791 793 794 795 797 798 799 800
687 688 690 691 692 694 696 698 699 701 703 704 706 707 708 710 712 714 716 718 719 721 723 724 726 727 729 731 733 734 736 738 740 743 745 748 750 753 755 757 759 761 763 766 768 771 774 777 780 783 786 788 788 787 784 781 781 783 786 788 789 791 792 793 794 796 797 798 798
688 689 690 692 693 695 696 698 700 701 703 704 706 707 708 710 711 713 715 717 719 721 723 724 725 727 728 730 732 734 736 738 740 743 746 748 751 753 756 758 760 762 764 767 770 773 775 778 780 783 785 786 786 783 781 780 781 783 785 787 788 790 791 793 794 795 796 797 798
689 690 691 693 694 695 697 698 699 701 703 704 706 708 709 710 711 713 715 717 718 720 723 724 725 727 728 730 733 734 737 738 740 743 747 749 752 754 757 759 761 764 766 769 772 774 776 778 781 782 783 783 781 780 779 779 781 783 785 787 788 789 791 792 793 794 795 796 797
689 691 692 693 695 696 697 698 700 702 703 704 706 708 709 711 712 713 715 716 718 720 722 724 726 727 729 731 733 735 737 739 741 744 747 749 752 754 757 760 762 765 768 770 772 774 777 778 780 780 780 779 778 778 778 779 782 783 785 787 788 789 790 792 793 794 795 796 796
690 691 693 694 695 697 698 699 701 702 704 705 707 708 710 711 713 714 715 717 718 720 722 724 726 727 729 731 733 736 738 740 742 744 747 749 752 754 757 760 763 765 768 770 772 774 776 777 777 777 777 777 776 777 778 780 782 784 785 787 788 789 790 792 793 794 794 795 795
691 692 693 695 696 697 698 700 701 703 704 706 707 709 711 712 713 714 716 717 718 720 722 724 726 728 730 732 734 736 738 740 743 744 746 749 752 755 758 761 763 766 768 769 771 773 773 774 774 775 775 775 775 777 778 781 783 785 786 787 788 789 790 791 792 792 793 793 793
692 693 694 695 697 698 699 700 702 703 705 706 708 709 711 713 714 715 716 718 719 721 723 725 727 728 730 732 734 736 738 740 743 744 746 749 752 755 758 762 763 765 767 768 769 770 771 772 772 773 773 774 775 777 780 782 784 785 786 787 788 789 789 789 790 790 790 791 791
692 693 695 696 697 698 699 701 702 704 705 707 708 710 712 713 714 716 717 718 720 721 723 726 728 729 731 733 734 736 738 740 743 744 747 750 753 756 758 761 763 764 765 767 768 768 769 770 771 772 773 774 776 778 781 783 785 785 786 786 787 787 787 787 787 788 788 789 789
693 694 695 696 697 698 700 701 703 704 706 708 709 710 712 713 715 716 718 719 720 722 724 726 728 730 732 733 735 736 738 740 743 745 748 751 754 756 759 761 762 763 764 765 766 767 768 769 771 772 774 775 778 780 783 784 784 784 784 784 785 785 785 785 785 786 787 787 788
693 694 695 697 698 699 700 702 703 705 707 708 709 711 713 714 715 717 718 719 721 723 724 726 728 731 733 735 736 738 739 741 743 745 748 752 754 756 758 760 761 762 763 763 765 766 768 770 772 773 775 777 779 782 783 783 783 782 782 782 783 783 783 783 784 784 785 786 786
694 695 696 697 698 699 701 702 704 705 707 708 710 712 713 714 716 717 718 720 722 723 725 727 729 731 734 736 738 739 741 743 744 746 748 751 754 756 758 758 759 760 761 763 765 767 769 771 773 774 776 778 781 782 782 781 780 780 780 781 781 781 782 782 783 784 784 785 785
694 695 696 698 699 700 701 703 704 706 707 709 710 712 713 715 717 718 719 721 722 724 726 728 730 733 735 737 739 741 742 743 744 746 748 751 753 755 756 758 759 760 762 764 767 769 771 773 774 775 778 779 781 781 780 779 778 778 779 779 780 781 781 782 783 783 783 784 784
695 696 697 698 699 700 702 703 704 706 708 709 711 713 714 716 717 719 720 722 723 725 727 729 732 734 736 738 740 742 743 743 744 745 748 751 753 755 756 758 759 762 764 766 768 770 772 773 774 776 777 778 779 778 777 777 777 778 778 779 780 780 781 781 782 782 783 783 784
695 696 698 698 700 701 702 703 705 707 708 710 712 713 715 717 718 720 721 723 725 726 728 730 733 735 737 739 741 742 743 743 744 746 749 752 753 755 757 759 761 763 766 767 769 770 771 773 773 775 775 776 775 775 775 776 777 777 778 778 779 779 780 781 782 783 783 784 785
696 697 698 699 700 701 703 704 706 707 709 710 712 713 715 717 719 720 722 724 726 728 729 731 733 735 737 739 741 742 743 743 745 748 750 752 754 755 758 760 762 764 766 767 768 769 770 771 772 772 773 773 773 773 774 775 776 776 777 777 778 778 779 781 782 783 784 786 786
696 697 698 700 701 702 703 705 706 708 709 711 713 714 716 718 719 721 723 724 726 728 730 732 734 735 737 739 741 742 743 744 747 749 751 753 754 756 758 760 762 763 764 765 766 766 767 768 769 769 770 771 771 772 773 774 774 775 775 776 777 778 780 781 783 784 785 786 785
696 698 699 700 701 703 704 705 707 708 710 711 713 714 716 718 720 722 723 725 727 729 731 732 734 735 737 738 740 742 743 745 748 750 752 753 754 756 758 760 761 762 762 763 763 764 765 766 767 768 769 769 770 771 771 772 773 773 774 776 777 779 781 782 783 784 784 783 783
696 698 699 701 702 703 704 706 708 709 710 712 713 715 717 718 720 722 724 725 727 729 731 732 733 735 737 738 740 742 744 746 748 750 751 753 754 756 757 758 759 760 760 760 761 762 763 765 766 767 768 768 768 769 770 771 772 773 774 776 778 780 781 782 782 781 781 781 780
696 698 699 701 702 703 705 706 708 709 711 712 713 715 717 718 720 722 724 726 728 729 730 732 733 735 737 739 741 743 745 746 748 750 751 753 753 755 756 757 757 758 759 759 761 762 763 764 765 765 766 767 767 768 769 771 772 773 775 776 778 778 779 779 779 779 779 779 779
696 698 699 701 702 703 705 707 708 710 711 713 714 715 717 719 721 723 724 726 728 729 731 732 734 736 738 739 741 743 745 747 748 749 750 751 752 753 754 755 756 757 758 760 761 762 763 763 764 764 765 766 767 768 770 772 773 773 774 775 776 776 776 777 777 778 778 778 778
696 698 699 701 702 703 705 707 708 710 711 713 714 716 718 719 721 723 724 726 728 729 731 733 734 736 738 740 741 743 744 746 747 748 749 750 751 752 753 754 756 758 759 760 760 761 761 761 762 763 765 766 768 769 770 770 771 771 772 773 773 774 774 775 776 777 777 778 778
696 698 699 701 702 704 705 707 708 710 712 713 715 716 718 719 721 723 724 726 728 729 731 732 733 735 737 739 740 742 743 744 746 747 748 750 751 752 753 754 756 758 758 758 758 758 758 759 761 762 764 766 767 767 767 768 768 769 770 771 772 773 773 774 775 776 777 778 778
696 698 699 701 702 703 705 707 708 710 712 713 715 716 718 719 720 722 724 725 727 728 729 731 732 734 736 738 739 741 742 744 745 747 748 750 751 752 753 755 755 755 755 754 755 756 757 758 759 761 762 763 764 764 765 766 767 768 769 770 771 772 773 774 775 776 777 777 778
696 698 699 700 702 703 705 706 708 710 712 713 715 717 718 719 720 722 723 725 726 727 728 729 731 733 735 737 738 740 742 744 745 747 748 749 751 752 753 753 753 752 752 753 753 754 755 757 758 758 759 760 761 762 763 764 766 767 768 770 771 772 773 774 775 776 776 777 778
696 697 699 700 702 703 705 706 708 710 712 714 715 716 718 719 720 721 723 724 725 726 728 729 731 733 734 736 738 740 742 744 745 746 748 749 750 751 751 751 752 751 751 751 752 753 753 754 755 756 757 758 759 761 762 764 765 767 768 770 771 772 773 774 775 776 776 777 778
696 698 699 700 702 703 705 706 708 710 712 713 715 716 717 718 719 721 722 724 725 727 728 730 732 733 735 737 739 741 742 743 744 745 746 748 749 749 750 751 750 750 750 750 750 751 752 753 753 754 755 756 758 759 761 763 765 767 769 770 772 773 774 775 776 776 777 777 778
696 698 699 700 702 703 705 706 708 710 712 713 715 716 717 718 719 721 723 724 726 727 728 730 731 733 734 736 737 739 740 741 742 743 744 746 747 748 749 749 749 750 750 749 749 750 750 751 752 753 754 755 757 759 761 763 765 768 769 771 773 774 775 776 776 777 778 778 778
696 697 698 700 702 703 705 707 708 710 712 713 714 715 716 717 719 721 723 724 725 726 727 728 729 731 732 734 735 737 738 739 741 742 743 744 746 747 748 749 750 750 750 749 749 749 750 751 752 752 753 754 757 759 762 763 766 768 771 773 774 775 776 777 778 778 779 780 780
695 696 698 699 701 703 704 706 708 710 712 713 714 714 715 717 720 721 722 723 723 725 727 728 730 731 733 734 736 737 738 738 740 741 742 743 744 745 747 749 751 751 751 750 750 750 750 751 751 752 753 754 758 760 763 764 767 770 772 773 775 777 778 779 780 780 781 782 782
694 695 697 699 700 702 703 705 707 709 711 712 713 714 716 718 720 721 721 722 723 725 727 728 730 732 733 734 735 737 738 738 740 741 742 743 743 745 747 749 751 752 752 751 751 750 751 751 752 752 753 755 758 761 763 765 768 771 773 774 776 778 779 780 781 782 783 783 783
693 694 696 698 699 701 703 704 706 708 710 711 712 714 716 718 719 720 721 722 723 725 727 728 730 732 733 735 736 738 739 740 741 742 743 744 745 747 748 750 752 753 753 753 752 752 752 752 753 753 753 755 758 761 764 767 769 772 773 775 778 779 781 782 783 783 784 784 785
692 693 695 697 698 700 702 704 705 707 709 711 713 714 716 717 718 720 721 722 723 725 727 729 731 733 735 736 738 739 740 741 743 743 744 746 747 748 749 751 753 754 755 755 754 754 754 754 754 754 754 756 758 762 764 767 770 773 775 777 779 781 782 783 784 785 785 786 787
691 693 694 696 698 700 702 703 705 707 709 711 713 714 715 716 718 720 721 723 724 726 728 730 733 735 737 738 738 739 741 743 743 744 746 747 749 749 750 752 754 756 757 757 757 756 756 757 757 757 756 757 759 762 765 768 770 773 776 778 781 783 784 785 786 787 788 788 789
690 692 693 695 697 699 701 703 705 707 709 711 712 713 714 716 718 720 722 723 725 727 729 731 734 737 738 738 739 740 742 744 745 746 748 749 751 751 752 753 755 757 758 759 759 759 759 759 759 759 759 759 761 763 765 768 770 773 776 779 782 784 786 787 788 789 790 791 791
689 691 693 695 697 698 701 703 706 708 709 710 712 713 714 716 718 720 722 724 726 728 731 733 736 737 738 739 740 741 743 745 747 749 750 751 752 753 754 754 756 758 760 761 761 761 761 761 761 761 761 761 763 764 766 768 770 774 777 780 783 785 787 789 790 791 792 793 794
Wind_Speed
29 28 27 26 25 23 22 21 22 23 24 24 24 24 25 25 25 25 26 28 27 26 26 26 27 28 28 30 32 33 33 34 36 36 36 36 36 37 36 35 36 38 39 38 38 37 35 33 32 32 33 34 35 35 36 35 34 35 36 37 36 35 35 35 35 34 33 32 32
28 29 29 28 27 25 24 23 23 23 23 23 23 23 23 23 23 24 25 26 26 26 26 27 27 28 29 32 34 34 33 33 35 35 35 34 34 34 33 33 34 36 36 36 35 34 33 32 32 32 32 33 33 33 33 33 34 36 36 36 36 35 35 34 35 34 34 33 32
26 28 29 29 28 27 25 24 24 24 24 23 22 22 22 22 23 24 25 26 26 26 26 26 28 29 30 33 34 34 33 34 34 35 34 33 32 31 30 30 31 33 33 32 32 32 32 32 32 31 31 30 31 32 32 32 34 36 36 36 35 34 34 34 34 34 33 33 32
25 26 27 28 28 28 27 26 25 25 25 24 23 23 24 24 25 25 26 27 26 25 26 27 28 29 31 33 33 32 33 33 34 34 33 32 31 30 29 28 29 30 30 30 31 31 31 30 30 31 31 30 31 32 33 32 34 35 35 34 34 33 33 33 33 33 33 32 32
25 25 25 26 27 28 28 27 26 26 26 25 24 24 24 25 26 27 27 26 25 26 27 28 29 30 31 32 31 31 31 32 34 33 32 31 30 29 29 29 30 31 31 31 31 31 31 31 31 31 32 32 33 34 33 33 34 33 32 32 32 32 32 32 32 32 32 32 32
26 25 24 24 25 27 27 26 27 27 26 26 25 25 24 25 26 27 27 26 26 27 28 28 29 30 32 32 30 30 30 32 32 32 31 30 30 30 30 30 32 34 34 33 32 33 33 33 32 32 32 33 33 34 34 34 33 32 30 30 30 31 31 31 31 31 31 31 31
26 25 24 24 25 26 26 26 27 26 26 26 25 25 25 25 27 28 28 28 28 29 29 29 30 31 32 31 30 29 29 31 32 32 31 30 31 31 32 32 34 35 36 36 35 35 35 34 33 32 33 34 33 33 33 33 31 30 29 29 29 30 30 30 30 30 30 30 30
25 25 25 25 25 26 26 27 27 26 26 25 25 25 25 26 27 29 29 29 29 29 30 29 31 32 33 31 30 28 29 30 32 32 32 32 33 33 34 34 35 36 37 37 36 36 35 33 32 33 34 34 33 32 31 31 29 29 29 29 29 29 30 30 29 29 29 29 29
23 24 25 25 25 26 26 27 27 26 26 25 25 25 25 26 28 29 29 29 30 30 30 30 31 33 34 32 30 28 28 30 31 32 33 34 35 35 35 35 35 35 36 36 36 36 35 35 34 35 36 34 32 30 30 29 28 28 29 29 29 29 29 29 29 29 29 29 29
23 24 24 24 24 25 26 26 27 27 26 26 26 25 25 26 28 29 29 29 30 31 31 30 31 32 33 32 29 27 27 29 31 33 34 35 36 35 34 33 33 33 33 34 35 36 37 37 35 34 34 32 30 29 28 27 27 28 29 29 29 29 29 29 28 28 28 29 29
23 24 24 24 24 25 26 26 26 26 26 26 26 25 26 27 28 28 28 29 30 31 31 30 31 32 32 31 29 27 27 29 31 33 34 35 35 33 31 30 31 32 33 34 36 38 39 36 34 32 31 29 28 26 25 25 27 28 28 28 28 28 28 28 28 29 29 30 31
23 24 24 24 25 26 26 25 25 26 26 26 26 26 26 26 27 28 28 29 30 31 31 31 32 32 32 30 28 27 28 31 32 33 33 34 33 30 28 28 30 32 35 36 37 38 36 34 31 30 29 27 25 23 22 22 25 27 28 27 27 27 27 28 30 30 30 31 32
24 24 24 25 26 26 26 25 25 25 25 25 26 26 26 26 27 28 28 29 30 30 30 31 32 32 31 28 28 29 31 33 33 33 33 32 31 28 26 27 30 34 36 36 36 35 33 31 30 28 25 23 20 18 17 19 21 24 27 27 27 28 28 30 32 32 32 32 32
24 24 25 25 26 26 25 24 24 24 25 25 25 25 26 26 27 28 28 29 29 29 30 31 31 30 29 28 28 30 33 34 34 33 33 32 30 27 25 26 31 33 34 34 33 32 30 28 26 23 21 18 16 15 15 17 20 23 26 29 30 30 31 33 34 34 33 32 31
24 24 25 25 26 25 24 24 23 23 24 25 25 25 25 26 27 28 28 28 28 29 30 30 29 28 27 27 29 32 34 35 35 34 34 33 30 26 25 26 30 32 33 32 31 29 27 25 22 19 17 16 15 15 16 19 23 27 30 32 33 34 34 34 34 33 32 31 31
23 24 25 25 24 24 23 23 22 23 24 24 24 25 25 26 27 27 28 27 28 29 29 29 29 27 27 27 29 32 33 35 35 35 34 32 28 26 25 26 29 30 30 29 28 25 23 21 19 17 16 16 16 17 20 24 29 33 34 35 35 35 35 34 32 31 31 31 30
23 23 24 24 24 23 23 22 22 23 24 24 24 25 25 26 26 26 27 27 27 28 28 28 29 28 27 27 28 30 31 32 33 33 31 29 27 26 25 27 28 29 28 27 24 22 20 19 17 16 16 17 18 21 25 30 33 35 35 35 34 34 33 32 31 30 30 30 29
22 23 23 24 24 23 23 23 23 24 24 25 25 25 25 25 26 26 26 26 27 27 27 28 29 28 27 26 25 26 27 28 29 28 27 26 26 26 26 27 27 27 26 25 23 21 20 19 18 18 19 21 23 27 31 33 34 33 33 33 32 32 31 31 30 29 28 28 29
22 22 23 23 23 23 23 24 24 24 24 25 25 25 24 25 25 25 25 26 27 28 29 29 29 28 26 24 23 23 24 25 26 26 25 25 26 26 26 27 26 25 24 24 23 22 21 20 20 21 23 25 29 32 33 32 31 31 31 31 31 31 31 30 29 28 27 27 27
21 22 22 22 23 23 23 24 24 24 24 25 25 25 25 25 25 25 25 25 26 28 29 30 29 27 25 23 22 22 22 23 24 25 25 25 26 26 27 27 26 25 24 23 23 23 23 23 24 25 28 31 33 33 31 29 29 29 30 31 31 31 31 29 28 26 25 24 23
21 21 21 22 22 23 24 25 25 24 24 24 24 24 25 25 26 26 25 26 26 27 28 28 28 26 24 23 22 22 21 22 24 25 26 26 26 27 27 26 25 25 24 24 25 25 26 27 29 30 32 33 33 31 29 28 29 30 31 31 31 30 29 27 26 24 22 20 19
21 21 21 21 22 23 24 25 25 25 24 24 23 23 24 25 26 26 26 26 26 26 26 26 26 24 23 22 22 22 21 22 24 25 26 26 27 27 26 25 25 26 26 27 28 29 30 31 32 33 33 32 31 30 30 30 31 31 31 30 29 28 27 25 23 21 18 16 16
21 21 21 21 22 23 24 25 25 24 23 22 22 22 23 24 25 27 27 26 25 25 24 24 23 22 20 20 21 21 22 22 24 25 25 26 27 27 27 26 27 28 29 30 30 30 31 31 31 32 31 31 31 31 32 32 32 31 30 28 27 26 24 21 18 16 15 15 15
21 21 21 21 22 23 24 25 24 23 22 21 20 20 21 22 24 26 27 26 25 24 23 22 21 20 19 19 20 21 22 23 23 24 24 25 26 27 29 29 30 31 31 31 31 30 30 30 30 31 31 32 32 32 32 32 31 30 28 27 25 22 18 14 13 13 13 14 14
22 22 22 22 22 23 24 24 23 22 21 20 20 20 21 22 24 25 26 25 24 23 22 20 20 20 19 20 20 21 22 23 24 24 25 26 28 29 30 31 31 31 30 30 29 29 30 30 31 32 31 32 31 31 30 29 28 27 25 23 20 16 13 12 12 13 13 13 12
22 22 22 22 22 23 24 24 23 22 20 20 20 20 21 22 24 25 25 25 24 23 22 21 21 21 21 22 23 24 25 25 26 27 28 29 30 31 30 29 28 28 28 28 29 30 31 32 32 31 30 30 29 27 25 23 22 21 19 16 14 13 13 13 14 14 14 13 13
22 22 22 22 22 23 24 25 24 22 21 21 21 21 22 22 24 25 26 25 25 25 24 23 23 24 25 25 27 28 29 29 30 31 31 31 30 29 28 27 26 25 26 27 29 31 33 33 32 30 29 27 24 20 17 15 14 13 12 12 13 15 16 16 17 17 17 16 15
22 22 22 22 22 23 24 24 24 23 23 22 22 22 21 22 24 26 27 27 27 26 26 26 26 27 28 28 30 31 32 31 32 31 30 30 29 29 28 26 24 24 25 28 30 31 32 32 31 30 28 23 19 16 15 13 13 13 14 16 17 18 19 19 19 19 19 19 18
22 22 22 22 22 23 24 24 25 25 25 24 23 22 21 22 24 26 27 27 27 28 28 27 27 28 29 29 30 32 32 32 31 30 29 29 29 28 26 24 23 23 24 27 29 30 30 30 30 29 27 23 19 17 16 15 15 16 17 19 19 20 21 21 21 21 21 21 21
22 22 22 22 22 23 24 25 27 27 26 25 23 22 21 23 24 26 26 27 28 29 29 28 28 28 29 29 30 31 31 31 31 30 30 30 28 26 23 20 20 20 21 24 25 26 26 26 26 26 25 24 22 19 17 17 17 18 19 20 21 22 22 22 22 23 23 23 23
22 22 22 22 22 23 24 26 28 28 27 25 23 22 22 24 25 26 27 28 28 28 28 28 28 28 29 29 29 29 30 30 30 30 30 29 25 21 18 16 12 14 17 19 21 22 22 22 23 23 24 25 23 20 19 19 19 21 22 23 23 23 23 23 24 24 24 25 26
21 21 22 22 22 22 24 26 28 28 27 24 24 23 24 25 26 27 27 27 25 24 24 24 25 26 26 26 26 25 25 25 25 26 25 24 21 18 15 12 9 8 10 13 15 17 18 19 20 22 23 25 23 22 22 22 23 24 25 25 25 24 24 25 26 27 27 28 28
22 22 22 22 22 22 23 24 26 26 26 25 25 25 25 25 26 25 23 21 19 18 18 19 20 21 21 21 20 19 18 18 18 19 19 20 19 16 14 12 10 9 9 10 12 14 16 18 21 23 25 26 25 25 26 27 27 28 28 28 28 28 28 29 29 29 29 29 29
23 23 23 23 23 23 23 24 25 26 27 27 26 26 26 26 23 20 16 14 14 16 17 18 18 19 19 18 18 17 16 16 16 17 18 19 18 17 15 14 15 16 17 17 17 18 20 22 24 26 27 28 28 29 30 31 31 31 32 32 32 32 32 32 31 31 31 31 31
25 25 24 24 24 25 25 26 26 27 28 28 28 28 27 24 19 15 13 13 15 17 18 18 18 18 18 18 18 18 18 19 20 20 20 21 21 20 19 20 21 22 23 23 24 24 26 27 28 30 31 32 32 33 34 35 35 35 35 35 34 34 33 33 33 32 32 32 31
26 26 26 25 25 26 27 28 28 29 29 30 30 29 26 20 16 15 15 16 18 19 19 19 18 18 18 20 21 22 22 23 23 23 22 22 23 23 24 26 25 26 27 28 29 30 31 32 32 33 34 35 35 36 37 37 38 38 38 38 37 36 35 35 34 33 32 31 31
27 27 27 26 26 27 28 28 28 29 30 30 30 27 22 18 17 17 18 20 21 22 21 20 21 22 23 24 24 23 23 23 23 24 25 24 24 25 27 28 27 27 28 30 31 33 34 34 35 35 36 37 38 38 38 39 39 39 40 39 38 37 36 35 35 33 32 31 30
27 28 28 27 27 28 28 28 29 29 29 29 26 22 19 19 19 20 21 22 23 24 24 23 24 24 24 24 25 25 24 24 24 26 28 28 27 28 29 29 28 27 28 30 32 33 34 35 36 37 38 39 39 39 39 39 39 39 39 38 37 36 36 36 35 34 33 31 30
27 29 29 28 28 28 28 29 29 28 27 25 21 19 21 23 23 23 23 23 24 25 25 24 23 23 24 27 29 31 31 30 30 30 30 31 30 31 31 31 30 29 28 29 31 33 34 35 35 36 37 38 39 39 39 39 39 39 38 37 36 35 35 35 35 35 34 32 31
27 29 30 29 29 29 29 29 27 25 23 21 21 22 24 26 26 26 26 25 25 25 26 26 26 28 31 33 34 35 34 34 33 32 32 32 32 32 32 33 31 30 29 30 31 32 33 34 35 35 36 37 37 37 38 38 39 38 36 35 34 33 33 33 34 34 34 33 32
28 29 30 30 30 30 28 27 24 22 22 23 24 25 27 29 29 29 29 28 27 27 27 29 32 33 35 35 36 36 37 36 35 34 33 33 33 33 33 33 32 31 30 29 30 31 32 33 33 34 36 37 37 37 37 37 37 36 35 33 33 32 31 31 32 33 33 33 32
Wind_Direction
201 198 196 193 191 186 182 180 178 176 175 176 175 173 171 167 163 162 166 173 175 176 175 175 177 177 178 179 180 177 172 169 171 174 177 179 182 185 185 184 182 180 178 175 173 171 172 177 186 192 194 191 189 186 185 185 186 186 186 187 189 191 193 193 195 196 197 199 202
192 191 188 185 180 174 169 166 165 166 167 168 169 168 165 162 160 164 171 175 177 177 176 176 176 174 174 177 180 179 173 169 170 172 175 177 178 178 178 177 175 173 171 170 170 171 176 184 190 190 188 186 184 184 186 188 188 186 186 188 191 193 194 195 197 198 200 202 205
183 182 181 176 169 164 160 159 160 161 163 164 165 166 165 164 167 170 172 173 176 177 175 174 174 172 171 172 174 173 171 168 168 170 171 172 171 170 170 171 171 169 168 168 170 174 180 185 186 183 180 180 183 187 191 190 187 186 187 190 193 195 196 197 199 201 203 205 207
173 171 169 167 162 158 157 158 160 162 164 165 166 167 169 170 171 172 173 174 175 176 174 172 171 171 170 168 167 167 167 167 167 167 167 167 166 166 167 169 170 170 168 168 171 175 178 179 178 176 175 179 188 194 194 190 187 187 189 193 195 197 198 201 203 204 206 208 210
163 162 162 159 155 155 157 159 161 163 165 166 167 168 171 172 174 174 174 173 173 174 173 171 169 169 168 166 164 164 164 165 166 166 166 166 167 166 167 169 171 170 170 170 172 173 173 172 172 173 177 186 195 198 194 187 186 188 191 194 197 200 202 204 206 208 210 212 214
157 157 156 155 154 155 158 161 163 164 165 166 167 168 168 170 172 173 172 171 171 171 170 167 166 166 165 164 162 162 162 163 165 166 167 168 168 168 169 170 171 171 172 172 171 170 170 170 173 178 185 194 200 198 192 187 187 189 191 194 199 202 205 207 209 211 213 215 217
155 155 155 155 156 158 161 163 165 165 165 165 166 166 166 167 168 169 169 169 168 168 166 164 163 163 163 162 161 160 160 161 164 166 168 169 169 170 170 170 170 171 172 172 171 171 171 174 178 186 193 199 199 195 190 188 188 190 192 195 200 204 206 209 211 213 214 216 218
155 155 156 157 159 160 162 164 164 164 163 163 165 166 165 164 164 165 165 165 166 166 165 163 162 162 162 160 160 159 159 161 163 166 169 170 170 170 170 169 170 170 172 173 174 175 178 181 187 193 196 198 195 191 188 188 189 192 194 197 201 204 207 209 211 213 214 216 217
152 154 155 156 157 159 160 162 161 161 160 161 163 164 163 161 161 162 162 162 164 165 165 163 162 161 161 159 159 159 160 162 163 166 169 170 169 169 169 169 171 172 174 177 179 182 186 189 193 195 194 192 189 187 186 188 190 194 197 200 202 205 207 209 211 213 214 216 217
151 152 152 153 154 155 156 157 158 158 158 158 160 161 160 159 160 160 160 161 162 163 163 163 162 161 160 159 159 159 161 163 165 167 169 170 169 168 168 171 174 177 180 183 186 189 191 193 194 192 189 187 185 184 185 189 193 196 200 202 204 205 207 209 212 214 216 218 220
153 153 153 152 152 153 153 154 155 156 156 157 157 158 158 158 159 159 159 160 159 160 161 162 162 161 160 159 160 161 163 165 166 168 169 169 168 168 170 174 179 183 186 188 190 191 191 191 189 187 185 184 183 183 186 190 195 199 202 205 207 208 210 212 215 217 219 221 222
154 154 154 153 153 153 152 152 152 153 154 155 156 156 157 157 158 158 157 157 157 158 160 161 162 162 161 160 160 161 162 163 165 167 167 167 168 170 174 180 184 187 188 189 188 188 187 186 185 184 182 182 182 183 188 195 201 204 207 208 210 212 214 217 218 220 221 222 223
156 156 155 154 154 153 152 151 151 152 153 154 155 155 156 157 158 158 156 155 155 156 158 160 162 162 161 160 160 159 159 160 163 164 164 165 168 174 180 185 186 187 186 185 184 182 182 182 183 181 180 179 181 185 193 202 209 211 212 213 214 216 218 220 221 221 221 222 223
158 157 156 155 154 153 152 150 151 152 153 153 154 155 155 156 157 157 156 154 154 155 156 159 160 160 160 159 159 158 158 159 161 161 162 164 170 178 186 188 185 183 182 180 180 179 179 180 180 179 178 178 182 189 199 208 214 216 216 216 216 218 220 222 222 221 220 221 222
157 158 157 156 155 153 152 151 151 152 153 153 154 154 154 154 156 156 155 154 153 154 155 156 157 157 157 157 157 158 159 161 161 161 161 165 173 184 191 188 182 180 179 178 178 178 178 178 179 179 179 180 184 192 203 212 218 219 218 218 218 219 221 221 221 220 220 221 223
157 157 158 157 155 153 153 152 153 153 154 154 154 154 153 153 154 153 153 152 153 153 154 153 153 153 154 156 158 160 161 163 163 162 163 168 180 190 192 185 179 177 177 177 178 179 181 181 181 179 178 182 189 199 209 218 221 221 219 218 219 220 221 221 221 221 221 223 225
158 158 158 158 155 154 153 153 153 154 155 155 155 155 154 153 152 151 150 150 151 151 151 152 151 151 152 156 160 163 165 165 165 164 166 173 184 190 187 180 176 175 176 178 181 183 183 182 180 180 183 189 197 207 216 223 223 221 219 219 220 221 221 222 222 223 224 227 229
159 158 157 157 157 155 153 153 153 154 155 156 157 157 156 154 152 149 149 149 150 150 151 151 151 152 153 157 162 167 170 169 167 165 168 177 184 184 180 176 176 176 177 179 181 182 182 182 184 186 191 198 205 214 221 224 223 221 220 220 221 222 224 225 226 227 229 231 233
159 159 158 158 158 155 153 152 153 154 155 156 158 159 158 156 154 151 150 149 151 152 152 153 153 154 156 159 165 171 173 170 166 165 170 178 180 178 175 176 177 177 176 177 179 181 184 188 191 194 198 204 212 219 223 224 222 221 222 223 224 225 227 228 230 231 232 234 237
160 160 159 158 157 155 152 152 152 152 154 155 157 159 160 160 157 155 153 152 153 154 156 156 158 159 160 163 167 170 171 167 163 166 173 178 177 176 176 177 176 176 176 179 182 187 191 194 197 199 204 209 216 220 222 222 222 223 225 226 228 229 230 231 232 233 235 239 244
162 161 159 157 156 155 153 152 151 151 152 153 156 159 162 163 163 160 158 156 156 157 159 160 162 163 164 165 166 167 166 163 164 170 177 180 179 178 178 177 176 178 182 186 190 193 195 197 199 203 208 213 218 220 221 222 224 226 228 229 230 231 232 233 235 238 243 248 251
164 162 160 158 157 156 155 154 152 151 152 153 155 159 162 165 167 166 163 160 159 159 161 163 164 165 166 166 164 163 162 162 167 173 179 180 180 179 178 178 181 185 190 193 196 198 199 201 203 208 212 217 220 222 223 224 226 227 229 230 231 233 235 237 241 245 246 244 240
165 164 163 161 159 158 158 157 155 154 154 154 156 158 162 165 169 169 167 164 162 162 163 164 164 165 166 165 163 161 162 165 172 177 180 180 179 179 181 184 189 193 196 200 202 203 204 206 209 213 217 220 223 224 225 226 227 228 229 230 233 235 238 240 240 237 232 226 222
166 166 165 165 164 162 161 160 159 158 158 158 158 158 160 163 167 168 168 166 164 164 164 164 164 166 167 166 164 164 167 171 177 181 182 181 181 183 186 190 195 199 203 205 207 208 210 213 216 219 222 224 226 226 227 227 228 229 230 232 234 235 234 230 222 214 210 207 205
167 167 168 168 167 165 164 163 162 162 162 161 160 159 158 160 163 165 166 166 166 166 166 166 168 170 171 170 169 170 173 177 180 183 184 185 187 189 192 197 202 205 208 210 212 215 217 220 222 223 224 225 225 226 227 228 230 231 233 234 232 225 213 199 192 189 186 183 177
170 170 170 171 170 168 166 165 165 165 164 163 160 158 157 159 162 163 164 165 167 168 169 171 173 175 175 174 174 176 179 182 184 186 188 190 193 196 200 203 206 209 212 214 217 220 222 224 225 224 224 224 225 226 227 228 229 230 229 226 215 198 183 172 165 162 160 155 151
172 172 171 171 170 169 168 168 167 167 165 163 160 158 158 160 162 164 166 167 169 172 174 177 179 180 180 180 180 181 183 186 188 190 192 195 198 201 205 208 210 212 214 216 219 222 223 224 224 224 224 224 224 222 218 213 211 207 199 183 171 164 158 152 147 143 138 135 134
169 169 169 169 168 168 168 168 168 167 165 163 160 160 160 162 164 166 168 170 173 176 179 182 184 185 185 185 185 186 188 189 191 192 195 198 201 205 207 210 212 215 217 219 221 223 224 225 225 225 224 222 218 210 201 190 179 168 157 148 143 142 140 137 133 129 124 120 120
164 164 165 165 164 165 165 166 166 167 165 164 162 162 163 165 166 168 170 173 177 181 184 186 187 187 187 188 189 189 189 190 191 193 196 200 202 205 209 213 216 219 222 224 224 226 227 227 227 227 225 219 209 198 185 171 159 149 141 136 133 131 129 125 122 119 115 113 111
161 161 161 162 161 162 162 163 165 166 166 165 165 166 167 167 167 169 172 177 182 186 188 188 187 186 187 188 188 188 188 189 190 194 198 200 203 206 209 213 218 222 226 227 227 228 228 228 227 225 222 215 204 190 174 160 148 139 133 128 125 124 121 118 115 112 110 110 109
161 161 161 160 160 160 160 161 164 166 167 167 169 171 171 170 170 172 176 181 186 188 189 187 186 186 186 186 186 186 187 188 192 196 199 201 200 199 201 207 214 224 229 230 230 229 228 225 222 218 213 206 194 178 161 147 137 128 122 119 117 115 114 112 110 108 107 108 106
164 163 162 161 160 160 160 161 163 166 168 171 173 177 178 176 175 177 180 185 187 188 186 184 184 184 184 184 184 184 184 186 190 194 195 193 189 186 186 187 194 206 216 223 224 222 218 213 206 201 195 188 175 160 146 135 126 119 115 111 110 109 108 107 105 104 104 104 103
167 166 164 163 162 162 162 162 164 166 170 174 179 183 184 184 183 182 184 186 183 177 171 168 168 168 168 168 167 168 170 172 175 177 178 178 176 172 166 158 146 142 154 174 187 192 191 187 183 179 175 167 155 143 133 126 119 113 109 106 104 103 103 103 102 101 101 101 101
169 169 168 167 166 165 165 165 166 168 172 177 183 188 190 190 188 186 183 176 163 154 148 145 143 142 142 143 145 145 145 147 149 151 155 160 162 157 145 133 125 126 134 145 155 161 164 164 163 161 157 149 138 129 122 117 112 108 104 101 99 99 99 98 98 98 98 98 99
172 171 171 171 170 169 169 169 170 172 175 180 186 192 194 193 189 181 169 157 148 143 140 138 135 132 129 128 136 134 129 131 133 135 139 143 145 139 129 122 120 123 130 136 141 145 147 148 149 148 144 136 127 120 115 111 107 103 100 97 95 94 94 94 94 95 95 96 98
174 174 174 174 174 174 174 174 174 175 178 182 188 193 194 188 178 167 158 150 144 138 134 131 131 129 123 116 118 119 118 118 119 121 125 129 130 126 121 116 116 120 125 129 133 135 137 138 139 139 135 129 122 116 111 107 103 100 97 95 93 91 91 91 92 93 94 95 96
177 177 177 177 177 177 178 178 178 178 180 184 189 191 187 175 163 156 152 147 140 134 130 126 122 117 113 109 107 109 113 115 116 113 113 117 120 120 116 112 112 115 119 123 126 129 130 131 132 132 130 124 119 113 109 105 101 98 95 92 90 89 89 88 88 89 90 91 92
180 179 180 180 180 180 180 180 180 181 183 186 187 183 172 161 152 149 148 145 139 132 127 122 115 112 111 108 105 107 111 114 116 113 109 110 114 115 112 108 107 110 115 119 122 124 125 126 126 127 125 121 117 112 108 104 100 97 94 91 89 87 86 85 84 84 84 86 88
183 182 182 182 182 182 182 182 183 184 184 182 174 163 155 152 146 143 144 144 139 132 126 121 116 114 113 110 105 104 104 106 107 107 106 104 107 109 108 106 105 107 111 114 117 119 120 121 122 122 121 119 116 112 109 105 101 98 95 92 89 87 85 83 81 80 80 81 82
186 185 184 184 183 183 183 183 183 181 176 167 155 146 143 143 139 138 138 136 133 128 124 120 117 113 109 108 105 102 100 99 100 101 101 101 103 104 105 103 103 104 107 110 113 115 116 118 119 119 119 118 116 113 111 107 103 99 96 93 91 88 85 83 81 80 78 78 78
189 188 186 186 185 184 183 181 176 168 159 152 145 141 139 137 135 132 130 129 128 125 122 118 114 110 108 107 105 101 98 96 96 97 98 99 100 100 101 102 102 102 104 106 109 111 113 114 116 117 117 116 115 113 111 108 104 100 97 95 93 90 87 84 82 80 78 77 76